sat.trackr.live / text

‹ back to catalog

2025-055H

NORAD 63298 · 2025-055H

PAYLOAD ACTIVE UNKNOWN

§ Identity

Operator
Country
PRC
Launch date
2025-03-17
Launch site
JSC
Launch vehicle
Mass (kg)
RCS (m²)

External: N2YO · Heavens-Above · Gunter

§ Orbital elements

Epoch: 2026-05-25T04:29:45.520224Z

Period
93.72 min
Inclination
97.6489°
Eccentricity
0.0007426
Mean motion
15.36423905 rev/d
Perigee alt
451.6 km
Apogee alt
461.8 km
Semi-major
6,834.8 km
B*
1.2246e-3
RAAN
290.7749°
Arg perigee
213.1916°
Mean anomaly
146.8862°
Rev number
6,591

§ Raw data

2025-055H1 63298U 25055H   26145.18733241  .00043660  00000+0  12246-2 0  99972 63298  97.6489 290.7749 0007426 213.1916 146.8862 15.36423905 65917

JSON: /api/v1/satellites/63298 · /tle

For live sub-satellite position, see the globe view (requires WebGL).

§ Visibility from observer

Set your observer location to see the next 7 days of passes ≥ 10°. The values pass through the URL so the page stays shareable.

No JS? Fill the form by hand. The geolocation button needs JavaScript.

§ Radio — SatNOGS DB

ModeDescriptionDownlinkUplink
FSK Mode U - Transmitter 437.125 MHz

1 transmitter · refreshed weekly from db.satnogs.org